QPF
0.05 0.04 0.04 0.04 0.03 0.02 0.02 0.01 0.01 0.01 0.01 0.02 0.02 0.02 0.01 0.01 0.01 0.01 0.01 0.01 0.01 0.01 0.02 0.02 0.02 0.01 0.01 0.01 0.00 0.00 0.00 0.00 0.00 0.00 0.00 0.01 0.01 0.02 0.02 0.02 0.02 0.01 0.01
0.04 0.04 0.04 0.03 0.02 0.01 0.01 0.01 0.01 0.01 0.01 0.02 0.02 0.01 0.02 0.01 0.01 0.01 0.01 0.01 0.02 0.01 0.01 0.01 0.01 0.01 0.01 0.01 0.01 0.00 0.01 0.01 0.00 0.00 0.00 0.00 0.01 0.01 0.01 0.02 0.02 0.02 0.02
0.04 0.04 0.03 0.03 0.02 0.02 0.01 0.01 0.01 0.01 0.01 0.01 0.02 0.02 0.02 0.02 0.01 0.01 0.01 0.02 0.01 0.01 0.01 0.01 0.01 0.01 0.01 0.00 0.00 0.00 0.00 0.00 0.00 0.00 0.00 0.00 0.00 0.01 0.01 0.01 0.02 0.02 0.02
0.05 0.04 0.04 0.03 0.02 0.03 0.02 0.01 0.01 0.01 0.01 0.01 0.01 0.02 0.02 0.02 0.02 0.02 0.01 0.01 0.01 0.01 0.01 0.01 0.01 0.00 0.00 0.00 0.00 0.00 0.00 0.00 0.00 0.00 0.00 0.00 0.00 0.00 0.01 0.01 0.01 0.02 0.02
0.06 0.05 0.04 0.04 0.02 0.02 0.04 0.03 0.02 0.01 0.01 0.01 0.01 0.01 0.02 0.02 0.02 0.02 0.02 0.02 0.01 0.01 0.01 0.01 0.01 0.00 0.00 0.00 0.00 0.00 0.00 0.00 0.00 0.00 0.00 0.00 0.00 0.00 0.01 0.01 0.01 0.02 0.02
0.06 0.05 0.04 0.04 0.03 0.02 0.03 0.04 0.04 0.03 0.02 0.02 0.02 0.01 0.02 0.02 0.02 0.02 0.02 0.02 0.02 0.01 0.01 0.01 0.00 0.00 0.00 0.00 0.00 0.00 0.00 0.00 0.00 0.00 0.00 0.00 0.00 0.00 0.00 0.01 0.01 0.01 0.02
0.05 0.05 0.05 0.04 0.04 0.03 0.02 0.03 0.04 0.04 0.03 0.02 0.02 0.02 0.02 0.02 0.02 0.02 0.02 0.01 0.01 0.01 0.01 0.01 0.01 0.00 0.00 0.00 0.00 0.00 0.01 0.01 0.01 0.00 0.00 0.00 0.00 0.00 0.00 0.00 0.01 0.01 0.02
0.03 0.04 0.05 0.04 0.04 0.03 0.03 0.03 0.03 0.04 0.03 0.02 0.02 0.02 0.02 0.02 0.03 0.02 0.01 0.01 0.01 0.00 0.00 0.00 0.00 0.00 0.00 0.00 0.00 0.00 0.01 0.01 0.01 0.01 0.00 0.00 0.00 0.00 0.00 0.00 0.00 0.01 0.01
0.01 0.02 0.03 0.03 0.03 0.02 0.02 0.02 0.02 0.03 0.03 0.03 0.03 0.02 0.02 0.02 0.02 0.02 0.02 0.01 0.01 0.00 0.00 0.00 0.00 0.00 0.00 0.00 0.00 0.01 0.00 0.00 0.00 0.00 0.00 0.00 0.00 0.00 0.00 0.01 0.01 0.01 0.01
0.01 0.01 0.01 0.02 0.02 0.01 0.01 0.02 0.02 0.02 0.02 0.03 0.03 0.03 0.02 0.02 0.02 0.02 0.02 0.02 0.01 0.01 0.00 0.00 0.00 0.00 0.01 0.01 0.01 0.01 0.00 0.00 0.00 0.01 0.01 0.00 0.00 0.00 0.00 0.00 0.01 0.01 0.01
0.00 0.00 0.01 0.01 0.01 0.01 0.01 0.01 0.01 0.01 0.01 0.01 0.01 0.02 0.02 0.02 0.02 0.02 0.02 0.02 0.02 0.01 0.01 0.01 0.00 0.00 0.00 0.00 0.00 0.00 0.00 0.01 0.01 0.01 0.01 0.00 0.00 0.00 0.00 0.00 0.00 0.01 0.01
0.00 0.00 0.01 0.01 0.01 0.01 0.01 0.01 0.01 0.01 0.01 0.01 0.01 0.01 0.01 0.01 0.01 0.02 0.02 0.01 0.01 0.01 0.01 0.01 0.01 0.01 0.00 0.00 0.00 0.00 0.01 0.01 0.01 0.01 0.01 0.01 0.00 0.00 0.00 0.00 0.00 0.01 0.01
0.00 0.01 0.01 0.01 0.02 0.02 0.01 0.01 0.01 0.01 0.01 0.01 0.01 0.01 0.01 0.01 0.01 0.01 0.01 0.01 0.01 0.01 0.01 0.01 0.01 0.01 0.01 0.01 0.01 0.01 0.01 0.01 0.02 0.02 0.01 0.00 0.00 0.00 0.00 0.00 0.00 0.00 0.00
0.00 0.01 0.01 0.02 0.02 0.02 0.02 0.02 0.02 0.01 0.01 0.01 0.01 0.01 0.01 0.01 0.01 0.02 0.02 0.01 0.01 0.01 0.01 0.01 0.01 0.01 0.01 0.01 0.01 0.01 0.01 0.01 0.02 0.01 0.01 0.01 0.01 0.01 0.01 0.00 0.00 0.00 0.00
0.00 0.00 0.01 0.01 0.02 0.02 0.02 0.02 0.02 0.01 0.01 0.01 0.01 0.01 0.01 0.01 0.02 0.02 0.02 0.02 0.01 0.01 0.01 0.01 0.00 0.00 0.00 0.01 0.01 0.01 0.01 0.01 0.01 0.01 0.01 0.01 0.01 0.01 0.01 0.00 0.01 0.01 0.01
0.00 0.01 0.01 0.01 0.01 0.01 0.02 0.02 0.01 0.01 0.01 0.01 0.01 0.01 0.01 0.01 0.01 0.01 0.01 0.01 0.01 0.02 0.02 0.01 0.01 0.01 0.01 0.01 0.01 0.01 0.01 0.01 0.01 0.01 0.01 0.01 0.01 0.01 0.01 0.01 0.01 0.01 0.01
0.00 0.00 0.00 0.00 0.00 0.01 0.01 0.01 0.01 0.01 0.01 0.01 0.01 0.01 0.01 0.01 0.01 0.02 0.01 0.02 0.02 0.02 0.02 0.01 0.01 0.01 0.01 0.01 0.01 0.01 0.01 0.01 0.01 0.01 0.01 0.01 0.01 0.02 0.02 0.01 0.01 0.02 0.01
0.00 0.00 0.00 0.00 0.00 0.00 0.01 0.01 0.01 0.01 0.01 0.01 0.01 0.01 0.01 0.01 0.01 0.01 0.02 0.02 0.02 0.02 0.01 0.01 0.01 0.01 0.01 0.01 0.01 0.01 0.01 0.01 0.01 0.01 0.02 0.02 0.02 0.02 0.02 0.02 0.02 0.02 0.02
0.00 0.00 0.00 0.00 0.00 0.00 0.00 0.01 0.01 0.01 0.01 0.01 0.01 0.01 0.01 0.01 0.01 0.02 0.02 0.01 0.01 0.01 0.01 0.01 0.01 0.01 0.01 0.01 0.01 0.01 0.01 0.01 0.01 0.02 0.02 0.02 0.02 0.02 0.02 0.02 0.02 0.02 0.03
0.00 0.00 0.00 0.01 0.00 0.00 0.00 0.01 0.01 0.01 0.01 0.01 0.01 0.01 0.01 0.01 0.01 0.01 0.01 0.01 0.01 0.01 0.01 0.01 0.01 0.01 0.01 0.01 0.01 0.01 0.02 0.02 0.02 0.02 0.02 0.02 0.02 0.02 0.02 0.02 0.02 0.02 0.02
0.00 0.00 0.00 0.00 0.00 0.00 0.01 0.01 0.01 0.01 0.01 0.01 0.01 0.01 0.02 0.02 0.02 0.02 0.02 0.01 0.01 0.02 0.02 0.02 0.02 0.02 0.01 0.01 0.02 0.02 0.02 0.02 0.02 0.02 0.02 0.02 0.02 0.02 0.02 0.02 0.02 0.02 0.03
0.00 0.00 0.00 0.01 0.01 0.01 0.01 0.01 0.01 0.01 0.01 0.01 0.02 0.02 0.02 0.02 0.02 0.02 0.02 0.02 0.02 0.02 0.02 0.02 0.01 0.01 0.01 0.01 0.02 0.02 0.02 0.02 0.01 0.01 0.01 0.01 0.02 0.02 0.02 0.02 0.02 0.02 0.03
0.01 0.01 0.01 0.01 0.01 0.01 0.01 0.01 0.01 0.02 0.02 0.02 0.02 0.02 0.02 0.02 0.02 0.02 0.01 0.01 0.01 0.01 0.01 0.01 0.01 0.01 0.01 0.01 0.01 0.02 0.02 0.01 0.01 0.01 0.02 0.02 0.02 0.02 0.02 0.02 0.02 0.03 0.03
0.01 0.01 0.01 0.01 0.01 0.01 0.01 0.01 0.02 0.02 0.02 0.02 0.03 0.03 0.02 0.02 0.02 0.01 0.01 0.01 0.01 0.01 0.01 0.01 0.01 0.01 0.01 0.02 0.02 0.01 0.01 0.01 0.01 0.02 0.02 0.02 0.02 0.02 0.02 0.02 0.02 0.02 0.03
0.01 0.01 0.01 0.02 0.02 0.02 0.02 0.02 0.02 0.02 0.02 0.02 0.03 0.03 0.02 0.02 0.02 0.01 0.01 0.01 0.01 0.01 0.01 0.01 0.01 0.01 0.01 0.01 0.01 0.01 0.01 0.01 0.01 0.02 0.02 0.02 0.02 0.02 0.02 0.02 0.02 0.02 0.03
0.01 0.01 0.02 0.02 0.02 0.02 0.02 0.02 0.02 0.02 0.02 0.02 0.02 0.02 0.02 0.02 0.02 0.01 0.01 0.01 0.01 0.01 0.01 0.01 0.01 0.01 0.01 0.01 0.01 0.01 0.01 0.01 0.01 0.01 0.02 0.02 0.02 0.02 0.02 0.02 0.02 0.02 0.02
MSLP
1015.07 1015.40 1015.74 1016.08 1016.40 1016.67 1016.88 1017.03 1017.13 1017.19 1017.23 1017.29 1017.37 1017.50 1017.67 1017.91 1018.19 1018.51 1018.85 1019.21 1019.55 1019.88 1020.19 1020.46 1020.69 1020.89 1021.05 1021.19 1021.30 1021.38 1021.45 1021.51 1021.54 1021.57 1021.58 1021.58 1021.57 1021.55 1021.54 1021.52 1021.52 1021.52 1021.54
1015.11 1015.41 1015.72 1016.02 1016.28 1016.51 1016.68 1016.81 1016.90 1016.97 1017.04 1017.13 1017.25 1017.41 1017.62 1017.87 1018.17 1018.49 1018.83 1019.18 1019.52 1019.84 1020.14 1020.41 1020.65 1020.85 1021.03 1021.18 1021.30 1021.40 1021.47 1021.52 1021.55 1021.57 1021.56 1021.54 1021.51 1021.47 1021.43 1021.39 1021.36 1021.33 1021.31
1014.98 1015.27 1015.54 1015.81 1016.04 1016.23 1016.38 1016.51 1016.60 1016.70 1016.80 1016.93 1017.10 1017.30 1017.54 1017.81 1018.11 1018.43 1018.75 1019.07 1019.38 1019.68 1019.96 1020.22 1020.46 1020.67 1020.86 1021.03 1021.17 1021.28 1021.37 1021.44 1021.48 1021.50 1021.50 1021.48 1021.45 1021.41 1021.36 1021.31 1021.27 1021.22 1021.17
1014.71 1014.98 1015.24 1015.48 1015.70 1015.87 1016.03 1016.16 1016.28 1016.42 1016.57 1016.74 1016.96 1017.20 1017.47 1017.75 1018.04 1018.34 1018.63 1018.91 1019.18 1019.44 1019.69 1019.93 1020.16 1020.37 1020.57 1020.76 1020.92 1021.06 1021.17 1021.25 1021.31 1021.34 1021.35 1021.35 1021.33 1021.31 1021.27 1021.24 1021.19 1021.14 1021.08
1014.33 1014.60 1014.86 1015.10 1015.31 1015.49 1015.66 1015.82 1015.98 1016.16 1016.37 1016.60 1016.86 1017.14 1017.43 1017.71 1017.99 1018.26 1018.51 1018.74 1018.96 1019.17 1019.38 1019.59 1019.81 1020.02 1020.23 1020.42 1020.60 1020.76 1020.89 1020.98 1021.06 1021.10 1021.13 1021.15 1021.15 1021.14 1021.13 1021.11 1021.09 1021.05 1020.99
1013.92 1014.20 1014.47 1014.72 1014.94 1015.14 1015.34 1015.53 1015.74 1015.97 1016.23 1016.51 1016.81 1017.12 1017.43 1017.71 1017.98 1018.21 1018.41 1018.60 1018.77 1018.93 1019.10 1019.29 1019.48 1019.68 1019.89 1020.09 1020.28 1020.44 1020.58 1020.68 1020.75 1020.81 1020.84 1020.86 1020.87 1020.89 1020.90 1020.91 1020.91 1020.89 1020.85
1013.57 1013.85 1014.13 1014.39 1014.63 1014.86 1015.09 1015.32 1015.57 1015.85 1016.15 1016.48 1016.82 1017.15 1017.47 1017.75 1017.99 1018.20 1018.37 1018.51 1018.64 1018.76 1018.90 1019.06 1019.23 1019.42 1019.62 1019.82 1020.00 1020.16 1020.29 1020.38 1020.44 1020.48 1020.50 1020.51 1020.53 1020.55 1020.58 1020.61 1020.64 1020.65 1020.62
1013.30 1013.59 1013.88 1014.16 1014.42 1014.67 1014.93 1015.19 1015.48 1015.79 1016.14 1016.50 1016.86 1017.21 1017.53 1017.81 1018.05 1018.23 1018.38 1018.49 1018.59 1018.69 1018.81 1018.94 1019.10 1019.28 1019.47 1019.65 1019.82 1019.95 1020.06 1020.12 1020.15 1020.16 1020.15 1020.15 1020.15 1020.16 1020.20 1020.24 1020.29 1020.33 1020.33
1013.14 1013.43 1013.73 1014.02 1014.30 1014.58 1014.85 1015.15 1015.46 1015.80 1016.17 1016.54 1016.92 1017.29 1017.61 1017.90 1018.12 1018.30 1018.44 1018.54 1018.63 1018.72 1018.82 1018.95 1019.09 1019.26 1019.43 1019.59 1019.73 1019.84 1019.91 1019.93 1019.93 1019.89 1019.85 1019.80 1019.78 1019.78 1019.80 1019.85 1019.91 1019.96 1019.99
1013.05 1013.35 1013.65 1013.96 1014.26 1014.55 1014.85 1015.17 1015.50 1015.86 1016.24 1016.63 1017.01 1017.38 1017.71 1018.00 1018.23 1018.41 1018.54 1018.65 1018.73 1018.82 1018.92 1019.04 1019.18 1019.33 1019.48 1019.62 1019.73 1019.80 1019.83 1019.82 1019.77 1019.69 1019.61 1019.53 1019.47 1019.44 1019.45 1019.49 1019.55 1019.62 1019.66
1013.01 1013.31 1013.63 1013.95 1014.27 1014.59 1014.91 1015.24 1015.59 1015.97 1016.35 1016.74 1017.13 1017.50 1017.83 1018.12 1018.36 1018.54 1018.69 1018.80 1018.89 1018.98 1019.08 1019.19 1019.32 1019.45 1019.58 1019.69 1019.77 1019.81 1019.81 1019.76 1019.67 1019.57 1019.45 1019.34 1019.25 1019.20 1019.19 1019.21 1019.26 1019.32 1019.37
1012.98 1013.30 1013.64 1013.98 1014.33 1014.68 1015.03 1015.38 1015.75 1016.13 1016.52 1016.92 1017.30 1017.66 1017.99 1018.28 1018.52 1018.71 1018.86 1018.98 1019.07 1019.16 1019.26 1019.36 1019.46 1019.57 1019.67 1019.76 1019.81 1019.82 1019.79 1019.73 1019.62 1019.49 1019.36 1019.23 1019.13 1019.06 1019.03 1019.03 1019.06 1019.10 1019.13
1012.99 1013.33 1013.69 1014.07 1014.45 1014.83 1015.21 1015.59 1015.98 1016.37 1016.76 1017.15 1017.53 1017.88 1018.20 1018.47 1018.71 1018.90 1019.04 1019.16 1019.26 1019.34 1019.42 1019.50 1019.58 1019.66 1019.73 1019.79 1019.81 1019.81 1019.76 1019.69 1019.58 1019.45 1019.31 1019.18 1019.08 1018.99 1018.94 1018.92 1018.92 1018.93 1018.92
1013.05 1013.42 1013.81 1014.22 1014.63 1015.05 1015.46 1015.87 1016.28 1016.68 1017.07 1017.45 1017.80 1018.14 1018.43 1018.69 1018.91 1019.08 1019.22 1019.33 1019.41 1019.48 1019.54 1019.59 1019.64 1019.69 1019.73 1019.76 1019.76 1019.74 1019.69 1019.61 1019.51 1019.40 1019.28 1019.16 1019.05 1018.96 1018.90 1018.85 1018.81 1018.78 1018.72
1013.22 1013.61 1014.03 1014.47 1014.91 1015.36 1015.80 1016.23 1016.65 1017.04 1017.42 1017.78 1018.11 1018.41 1018.67 1018.90 1019.09 1019.24 1019.36 1019.45 1019.51 1019.56 1019.60 1019.62 1019.65 1019.66 1019.67 1019.67 1019.65 1019.61 1019.56 1019.49 1019.40 1019.31 1019.20 1019.10 1019.00 1018.91 1018.83 1018.75 1018.68 1018.59 1018.48
1013.54 1013.94 1014.37 1014.83 1015.30 1015.76 1016.21 1016.65 1017.06 1017.44 1017.79 1018.11 1018.40 1018.65 1018.87 1019.06 1019.21 1019.33 1019.43 1019.50 1019.55 1019.58 1019.59 1019.60 1019.60 1019.59 1019.56 1019.54 1019.50 1019.45 1019.39 1019.32 1019.25 1019.16 1019.07 1018.98 1018.89 1018.79 1018.69 1018.59 1018.47 1018.33 1018.16
1014.03 1014.42 1014.85 1015.30 1015.77 1016.23 1016.67 1017.08 1017.47 1017.81 1018.12 1018.39 1018.62 1018.82 1018.98 1019.13 1019.24 1019.34 1019.41 1019.47 1019.51 1019.53 1019.54 1019.54 1019.52 1019.49 1019.45 1019.40 1019.34 1019.27 1019.20 1019.12 1019.04 1018.96 1018.87 1018.78 1018.68 1018.57 1018.45 1018.31 1018.16 1017.97 1017.75
1014.65 1015.02 1015.42 1015.86 1016.29 1016.72 1017.12 1017.50 1017.83 1018.12 1018.37 1018.58 1018.74 1018.88 1018.99 1019.09 1019.17 1019.25 1019.31 1019.36 1019.41 1019.44 1019.46 1019.46 1019.44 1019.40 1019.34 1019.27 1019.19 1019.10 1019.00 1018.91 1018.81 1018.70 1018.60 1018.49 1018.38 1018.25 1018.10 1017.93 1017.74 1017.52 1017.26
1015.35 1015.68 1016.04 1016.42 1016.81 1017.18 1017.53 1017.85 1018.12 1018.34 1018.51 1018.65 1018.75 1018.83 1018.89 1018.95 1019.01 1019.07 1019.14 1019.21 1019.27 1019.32 1019.36 1019.38 1019.37 1019.33 1019.27 1019.18 1019.07 1018.94 1018.81 1018.68 1018.54 1018.40 1018.27 1018.13 1017.98 1017.83 1017.65 1017.46 1017.24 1016.99 1016.71
1016.05 1016.33 1016.63 1016.95 1017.27 1017.57 1017.85 1018.10 1018.29 1018.44 1018.55 1018.62 1018.66 1018.69 1018.71 1018.75 1018.79 1018.86 1018.94 1019.03 1019.12 1019.20 1019.27 1019.30 1019.31 1019.27 1019.20 1019.09 1018.95 1018.79 1018.61 1018.42 1018.23 1018.05 1017.87 1017.69 1017.51 1017.32 1017.12 1016.91 1016.68 1016.43 1016.15
1016.66 1016.87 1017.11 1017.37 1017.62 1017.85 1018.06 1018.23 1018.36 1018.45 1018.50 1018.51 1018.51 1018.51 1018.51 1018.53 1018.57 1018.65 1018.74 1018.86 1018.98 1019.09 1019.18 1019.24 1019.25 1019.21 1019.12 1018.98 1018.80 1018.59 1018.36 1018.11 1017.87 1017.62 1017.39 1017.17 1016.95 1016.74 1016.53 1016.31 1016.08 1015.83 1015.57
1017.11 1017.27 1017.45 1017.64 1017.83 1018.00 1018.15 1018.27 1018.34 1018.38 1018.39 1018.37 1018.35 1018.32 1018.32 1018.34 1018.40 1018.48 1018.60 1018.73 1018.87 1019.00 1019.10 1019.16 1019.16 1019.10 1018.98 1018.80 1018.57 1018.30 1018.01 1017.70 1017.40 1017.10 1016.82 1016.56 1016.32 1016.09 1015.87 1015.66 1015.45 1015.23 1015.00
1017.37 1017.49 1017.62 1017.76 1017.90 1018.03 1018.13 1018.21 1018.25 1018.27 1018.26 1018.23 1018.21 1018.19 1018.19 1018.22 1018.29 1018.39 1018.51 1018.65 1018.79 1018.91 1018.99 1019.02 1018.99 1018.89 1018.72 1018.49 1018.20 1017.87 1017.51 1017.15 1016.79 1016.44 1016.13 1015.84 1015.59 1015.36 1015.15 1014.96 1014.77 1014.59 1014.41
1017.46 1017.54 1017.64 1017.75 1017.85 1017.95 1018.03 1018.08 1018.12 1018.13 1018.13 1018.11 1018.10 1018.10 1018.12 1018.17 1018.25 1018.35 1018.47 1018.59 1018.70 1018.78 1018.82 1018.79 1018.70 1018.54 1018.30 1018.00 1017.64 1017.25 1016.83 1016.42 1016.02 1015.65 1015.31 1015.01 1014.76 1014.54 1014.36 1014.20 1014.06 1013.92 1013.78
1017.44 1017.49 1017.56 1017.64 1017.72 1017.79 1017.86 1017.91 1017.95 1017.98 1017.99 1018.01 1018.02 1018.05 1018.09 1018.15 1018.23 1018.33 1018.42 1018.51 1018.57 1018.59 1018.55 1018.45 1018.28 1018.03 1017.71 1017.33 1016.91 1016.45 1015.99 1015.53 1015.10 1014.71 1014.37 1014.09 1013.85 1013.66 1013.51 1013.39 1013.30 1013.21 1013.12
1017.36 1017.38 1017.42 1017.48 1017.54 1017.60 1017.66 1017.71 1017.76 1017.80 1017.84 1017.89 1017.93 1017.98 1018.05 1018.12 1018.20 1018.27 1018.33 1018.36 1018.36 1018.30 1018.17 1017.98 1017.71 1017.37 1016.97 1016.51 1016.02 1015.51 1015.01 1014.53 1014.09 1013.70 1013.37 1013.10 1012.89 1012.74 1012.63 1012.56 1012.51 1012.46 1012.42
Thickness
5533 5535 5536 5537 5538 5540 5542 5543 5545 5546 5548 5548 5547 5547 5547 5547 5547 5546 5545 5544 5544 5542 5541 5539 5537 5536 5534 5531 5529 5527 5524 5520 5517 5517 5516 5513 5510 5507 5505 5503 5501 5500 5498
5530 5531 5531 5531 5532 5533 5535 5537 5539 5540 5540 5541 5540 5540 5539 5539 5538 5537 5536 5535 5533 5532 5531 5528 5526 5525 5522 5519 5517 5514 5511 5508 5505 5503 5501 5499 5497 5495 5492 5490 5489 5487 5485
5526 5526 5526 5526 5526 5527 5529 5531 5531 5532 5532 5532 5532 5532 5531 5531 5530 5528 5527 5525 5523 5522 5520 5518 5516 5513 5510 5508 5505 5502 5499 5496 5493 5489 5487 5485 5483 5481 5478 5477 5475 5473 5472
5520 5520 5520 5520 5519 5520 5521 5523 5523 5523 5523 5523 5524 5523 5522 5521 5520 5518 5517 5516 5513 5511 5509 5507 5505 5502 5500 5497 5494 5490 5487 5483 5480 5476 5473 5471 5469 5468 5464 5461 5460 5459 5458
5513 5512 5512 5512 5512 5512 5512 5513 5514 5514 5514 5514 5513 5513 5512 5511 5510 5509 5507 5505 5502 5500 5498 5496 5493 5491 5489 5486 5483 5479 5475 5471 5467 5464 5461 5458 5455 5453 5450 5448 5446 5445 5444
5505 5504 5504 5504 5503 5503 5503 5503 5504 5504 5503 5503 5502 5502 5501 5501 5501 5499 5497 5494 5492 5489 5487 5484 5482 5479 5477 5474 5472 5469 5465 5460 5456 5452 5449 5446 5444 5441 5439 5436 5432 5430 5429
5497 5496 5496 5495 5494 5493 5494 5493 5493 5493 5493 5491 5491 5490 5490 5489 5489 5487 5485 5483 5480 5478 5475 5473 5471 5469 5466 5462 5459 5457 5453 5450 5448 5443 5439 5436 5433 5431 5427 5423 5419 5415 5414
5488 5487 5486 5485 5484 5484 5483 5483 5482 5481 5481 5480 5480 5479 5478 5478 5477 5475 5473 5471 5468 5466 5464 5462 5459 5457 5454 5450 5447 5444 5441 5439 5436 5433 5430 5427 5423 5419 5415 5411 5407 5404 5403
5478 5477 5476 5475 5474 5473 5473 5472 5471 5470 5470 5470 5470 5468 5467 5466 5465 5463 5461 5458 5456 5455 5453 5451 5448 5445 5444 5440 5435 5432 5429 5427 5424 5422 5419 5415 5411 5407 5403 5398 5393 5389 5389
5468 5466 5465 5465 5464 5463 5463 5462 5461 5460 5460 5459 5458 5457 5456 5455 5454 5452 5449 5446 5444 5442 5441 5439 5437 5434 5432 5428 5425 5421 5417 5415 5412 5410 5406 5402 5399 5395 5390 5386 5381 5376 5374
5457 5456 5455 5454 5454 5453 5453 5453 5451 5450 5448 5447 5446 5445 5444 5443 5442 5440 5438 5435 5433 5431 5429 5427 5425 5423 5420 5417 5414 5410 5408 5404 5400 5397 5393 5389 5386 5382 5378 5374 5370 5365 5361
5446 5445 5444 5443 5443 5443 5442 5441 5439 5437 5436 5434 5433 5432 5431 5430 5429 5428 5426 5424 5422 5419 5418 5416 5413 5411 5409 5406 5403 5400 5396 5392 5388 5383 5379 5376 5372 5369 5366 5362 5358 5354 5351
5436 5434 5433 5432 5431 5430 5429 5428 5427 5425 5423 5422 5420 5419 5418 5418 5416 5416 5414 5412 5410 5408 5406 5404 5402 5400 5397 5394 5391 5388 5384 5379 5374 5370 5368 5364 5361 5358 5354 5350 5346 5342 5339
5424 5422 5421 5420 5419 5418 5417 5416 5414 5413 5411 5410 5408 5407 5405 5404 5403 5401 5400 5399 5397 5395 5393 5392 5390 5388 5385 5382 5379 5375 5371 5367 5362 5359 5356 5352 5348 5344 5340 5337 5333 5330 5327
5411 5410 5409 5408 5406 5406 5405 5404 5403 5402 5400 5398 5397 5395 5393 5392 5392 5391 5388 5387 5385 5383 5381 5378 5375 5373 5370 5367 5365 5361 5358 5354 5350 5346 5342 5339 5335 5332 5328 5324 5321 5318 5315
5397 5396 5395 5394 5393 5392 5392 5391 5391 5390 5389 5388 5387 5385 5385 5384 5383 5381 5378 5377 5374 5372 5369 5366 5363 5360 5358 5355 5352 5348 5345 5341 5338 5334 5331 5327 5323 5319 5316 5312 5309 5306 5304
5383 5382 5381 5381 5380 5379 5378 5378 5377 5377 5376 5376 5375 5375 5374 5373 5371 5370 5367 5365 5363 5360 5357 5354 5351 5349 5346 5344 5340 5337 5334 5330 5326 5323 5319 5315 5311 5308 5304 5301 5299 5296 5294
5370 5370 5369 5367 5366 5366 5365 5364 5364 5363 5363 5363 5363 5362 5362 5361 5360 5358 5356 5353 5351 5348 5345 5343 5341 5338 5335 5332 5329 5326 5322 5319 5315 5312 5308 5305 5301 5298 5295 5292 5290 5287 5285
5357 5356 5356 5355 5354 5353 5353 5352 5351 5351 5351 5350 5350 5349 5350 5349 5348 5346 5344 5340 5338 5336 5334 5332 5330 5327 5324 5322 5319 5315 5312 5309 5306 5302 5299 5295 5292 5289 5286 5283 5281 5279 5276
5345 5344 5343 5342 5341 5341 5340 5339 5339 5338 5338 5338 5337 5336 5335 5334 5333 5332 5330 5328 5326 5325 5323 5321 5319 5317 5314 5312 5309 5306 5303 5300 5297 5293 5290 5287 5284 5281 5278 5276 5273 5271 5269
5332 5331 5331 5330 5329 5328 5328 5327 5327 5326 5325 5325 5325 5324 5324 5322 5321 5319 5318 5317 5315 5314 5312 5310 5309 5307 5304 5302 5299 5296 5294 5291 5288 5285 5282 5279 5277 5274 5271 5269 5266 5264 5262
5319 5318 5318 5317 5317 5316 5316 5316 5315 5314 5313 5313 5313 5312 5313 5310 5309 5308 5307 5305 5304 5303 5301 5300 5298 5297 5295 5293 5290 5288 5285 5283 5280 5277 5275 5272 5269 5267 5264 5262 5260 5258 5256
5306 5305 5305 5305 5304 5305 5304 5303 5303 5302 5302 5301 5301 5301 5300 5299 5298 5297 5296 5295 5293 5292 5291 5289 5288 5287 5285 5284 5282 5280 5278 5276 5273 5270 5268 5265 5263 5261 5259 5257 5255 5253 5251
5293 5293 5293 5292 5292 5292 5292 5292 5291 5291 5291 5291 5290 5290 5289 5288 5287 5286 5285 5284 5283 5282 5281 5280 5279 5278 5277 5275 5274 5272 5270 5268 5266 5264 5262 5259 5257 5255 5253 5251 5249 5248 5246
5281 5281 5281 5280 5281 5281 5281 5281 5281 5281 5280 5280 5280 5280 5279 5278 5277 5276 5275 5274 5273 5273 5272 5271 5271 5270 5269 5268 5266 5265 5264 5262 5260 5258 5256 5254 5252 5250 5248 5246 5245 5243 5241
5270 5269 5269 5269 5270 5270 5270 5271 5271 5270 5270 5270 5270 5270 5269 5269 5268 5267 5266 5265 5265 5264 5263 5263 5262 5262 5261 5260 5260 5259 5258 5256 5254 5252 5251 5249 5247 5245 5243 5242 5240 5239 5237